Regional Weather Roundup
Issued by NWS Bismarck, ND

Home | Current Version | Previous Version | Text Only | Print | Product List | Glossary On
Versions: 1 2 3 4 5 6 7 8 9 10 11 12 13 14 15 16 17 18 19 20 21 22 23 24 25 26 27 28 29 30 31 32 33 34 35 36 37 38 39 40 41 42 43 44 45 46 47 48 49 50
000
ASUS43 KBIS 270220
RWRBIS

NWR BROADCAST TEXT
NATIONAL WEATHER SERVICE BISMARCK ND
900 PM CDT THU MAR 26 2015

NOTE: "FAIR" INDICATES FEW OR NO CLOUDS BELOW 12,000 FEET WITH NO
SIGNIFICANT WEATHER AND/OR OBSTRUCTIONS TO VISIBILITY.


CITY           SKY/WX    TMP DP  RH WIND       PRES   REMARKS
WILLISTON      CLOUDY    39  26  59 SE12      30.14F
MINOT          PTCLDY    30  21  69 E6        30.21F
MINOT AFB      PTCLDY    30  26  86 E7        30.21S
BISMARCK       MOCLDY    29  19  66 E8        30.24R
DICKINSON      CLOUDY    33  27  78 SE8       30.15S
GARRISON         N/A     32  20  61 CALM      30.21S
HETTINGER ARPT CLOUDY    33  27  78 SE7       30.19R
JAMESTOWN      CLEAR     23  13  65 NE8       30.27R WCI  14
BEACH          CLOUDY    37  32  81 SE12      30.14S
CARRINGTON     FAIR      25  16  68 E6        30.28S WCI  18
CROSBY         FAIR      34  28  80 SE8       30.16S
HARVEY         FAIR      23  16  74 E7        30.26S WCI  15
HAZEN          CLOUDY    27  19  74 SE6       30.23R WCI  20
LINTON         FAIR      27  16  63 E6        30.24R WCI  20
MANDAN         FAIR      32  19  59 E6        30.23S
OAKES            N/A     25  16  68 NE9       30.28R WCI  15
RUGBY          FAIR      27  23  86 SE8       30.25F WCI  18
TIOGA          FAIR      32  27  80 SE8       30.19F
WATFORD CITY   FAIR      37  27  65 SE10      30.14F
$$

CITY           SKY/WX    TMP DP  RH WIND       PRES   REMARKS
GRAND FORKS    FAIR      22  15  75 N7        30.31R WCI  13
GRAND FORKS AF NOT AVBL
DEVILS LAKE    CLEAR     25  18  74 SE6       30.27S WCI  18
FARGO          CLEAR     25  10  53 N9        30.29R WCI  15
CANDO          FAIR      25  21  86 E6        30.27F WCI  18
CAVALIER       FAIR      27  19  74 N7        30.31F WCI  19
GWINNER        CLEAR     27  14  59 N9          N/A  WCI  17
ROLLA          FAIR      25  23  93 SE6       30.25F WCI  18
WALHALLA         N/A     25  25 100 CALM      30.31F
$$

CITY           SKY/WX    TMP DP  RH WIND       PRES   REMARKS
ABERDEEN       CLEAR     28  13  53 NE9       30.27R WCI  19
MOBRIDGE       CLOUDY    36  20  52 NE9       30.21R
BUFFALO          N/A     39  32  76 E9        30.08R
RAPID CITY     CLOUDY    38  28  67 E12       30.15R
GLASGOW        CLOUDY    44  33  65 E14       30.04F
SIDNEY         CLOUDY    39  30  70 SE7       30.14S
WOLF POINT     CLOUDY    43  35  73 E9        30.09S
GLENDIVE         N/A     45  32  61 E8        30.11F
MILES CITY     CLOUDY    50  30  46 E8        30.06S
BAKER          CLOUDY    41  32  70 SE13      30.12S
$$

CITY           SKY/WX    TMP DP  RH WIND       PRES   REMARKS
BILLINGS       CLOUDY    61  35  37 W15       30.07S
GREAT FALLS    PTCLDY    54  36  50 SW14      30.11R
REGINA         MOCLDY    34  30  86 SE17      30.11F
ESTEVAN        PTCLDY    32  25  74 E9        30.17F
$$



USA.gov is the U.S. government's official web portal to all federal, state and local government web resources and services.